Accueil
METAR-TAF:

METAR-TAF

Aéroports :

Payerne, Suisse

Aérodrome de Payerne

latitude: 46-49N, longitude: 006-57E, altitude: 490 m

Observation

Le bulletin a été fait il y a 41 minutes, à 02:50 UTC
Vent 1 kt de ouest/sud-ouest
Température 8°C
Humidité 81%
Pression 1015 hPa
Visibilité 10 km ou plus
Nuages fragmentés à une hauteur de 10000 ft

METAR: LSMP 190250Z AUTO 25001KT 9999NDV BKN100 08/05 Q1015 RMK

Heure: 05:31 (03:31 UTC)


TAF: absent

Observations et prévisions météorologiques de plus de 4000 aéroports (messages METAR et TAF).

Les stations disponibles sont représentées par des disques jaunes et rouges sur la carte.

Passer la souris dessus pour voir le nom de la station.

Cliquer dessus pour voir les observations et prévisions météorologiques.

Pour changer de carte: cliquez sur les boutons verts avec une croix noire pour zoomer, sur le bouton vert avec un tiret pour effectuer un zoom arrière, ou sur les flèches vertes pour les cartes adjacentes.


METAR-TAF: